Zurück zum Katalog

STARLINK-31129

AktivKommunikationVLEO
NORAD 58624·PAYLOAD·🇺🇸 United States

Gestartet Dec 23, 2023 von Cape Canaveral Space Force Station

Loading…

Nächste Überflüge (nächste 24 Stunden)

TLE

AktuellSource: CelesTrak SupGP

Epoche: Sep 15, 2026, 03:16 UTC

1 58624C 23203G   26258.13659722 -.00016937  00000+0 -61336-3 0  2580
2 58624  43.0001  77.2073 0001412 268.5677 130.0154 15.27591462    17

Verfolge STARLINK-31129 in Echtzeit mit AllMySat

Download on the App Store